This demonstration page uses our WeatherBlox Daily Observations layout. Learn more.

40.92945, -100.16068

Hourly Observations for October 21, 2020

Temp ( °F °C ) Dew Point ( °F °C ) Humidity (%) Winds ( mph kmh ) Pressure ( in mb ) Visibility ( mi km ) Precip ( " mm )
12:15 am 00:15 Clear 43 6.1 37 2.6 79 79 Calm 30.18 1022 10 16.0934 0 0
12:35 am 00:35 Clear 43 6 37 2.8 80 80 Calm 30.17 1022 10 16.0934 0 0
12:55 am 00:55 Clear 42 5.8 37 2.5 80 80 Calm 30.16 1021 10 16.0934 0 0
1:15 am 01:15 Clear 41 5.2 37 2.5 83 83 Calm 30.17 1022 10 16.0934 0 0
1:35 am 01:35 Clear 42 5.3 37 2.6 83 83 NNE 3 6 30.17 1022 10 16.0934 0 0
4:15 am 04:15 Clear 41 5.1 37 3 86 86 ENE 3 5 30.18 1022 10 16.09 0 0
4:35 am 04:35 Clear 41 4.8 37 2.9 88 88 E 5 8 30.16 1021 10 16.09 0 0
4:55 am 04:55 Clear 41 5.1 37 3 86 86 ENE 5 8 30.15 1021 10 16.09 0 0
5:15 am 05:15 Clear 41 5 38 3.1 88 88 E 3 5 30.15 1021 10 16.09 0 0
6:55 am 06:55 Mostly Cloudy 40 4.3 36 2 85 85 E 6 9 30.13 1020 10 16.0934 0 0
7:15 am 07:15 Partly Cloudy 40 4.4 35 1.8 83 83 ESE 7 11 30.12 1020 10 16.0934 0 0
7:35 am 07:35 Clear 39 4.1 36 2 86 86 SE 9 15 30.13 1020 10 16.0934 0 0
7:55 am 07:55 Clear 39 3.7 35 1.8 88 88 SE 7 11 30.14 1021 10 16.0934 0 0
8:15 am 08:15 Sunny 39 4 36 2.1 88 88 ESE 8 13 30.14 1021 10 16.0934 0 0
8:35 am 08:35 Sunny 38 3.6 36 2 89 89 ESE 5 7 30.15 1021 10 16.0934 0 0
8:55 am 08:55 Sunny 40 4.3 36 2.4 88 88 ESE 5 7 30.16 1021 10 16.0934 0 0
9:15 am 09:15 Sunny 40 4.6 37 2.6 87 87 E 7 11 30.15 1021 10 16.0934 0 0
9:35 am 09:35 Sunny 41 4.8 37 2.8 87 87 ESE 9 15 30.15 1021 10 16.0934 0 0
9:55 am 09:55 Sunny 42 5.6 37 3 84 84 SE 10 17 30.14 1021 10 16.0934 0 0
10:15 am 10:15 Partly Cloudy 43 6.3 37 3 80 80 ESE 14 22 30.14 1021 10 16.0934 0 0
10:35 am 10:35 Partly Cloudy 44 6.8 37 3 77 77 SE 12 19 30.13 1020 10 16.0934 0 0
10:55 am 10:55 Sunny 45 7.1 38 3.1 76 76 SE 12 19 30.12 1020 10 16.0934 0 0
11:15 am 11:15 Sunny 46 7.8 38 3.1 72 72 SE 15 24 30.1 1019 10 16.0934 0 0
11:35 am 11:35 Sunny 48 8.9 38 3.5 69 69 SSE 15 24 30.09 1019 10 16.0934 0 0
11:55 am 11:55 Partly Cloudy 49 9.6 39 3.7 67 67 SE 18 30 30.06 1018 10 16.0934 0 0
12:15 pm 12:15 Partly Cloudy 50 10 39 3.8 66 66 SE 15 24 30.06 1018 10 16.0934 0 0
12:35 pm 12:35 Cloudy 51 10.7 39 4.1 64 64 SE 17 28 30.04 1017 10 16.0934 0 0
12:55 pm 12:55 Cloudy 51 10.7 39 4 64 64 SE 17 28 30.03 1017 10 16.0934 0 0
1:15 pm 13:15 Cloudy 51 10.6 40 4.2 65 65 SSE 16 26 30.03 1017 10 16.0934 0 0
1:35 pm 13:35 Cloudy 51 10.6 40 4.3 65 65 SSE 16 26 30.01 1016 10 16.0934 0 0
1:55 pm 13:55 Cloudy 51 10.4 40 4.3 66 66 SSE 16 26 30 1016 10 16.0934 0 0
2:15 pm 14:15 Cloudy 50 10 40 4.2 68 68 SSE 15 24 29.99 1016 10 16.0934 0 0
2:35 pm 14:35 Cloudy 50 10 40 4.4 68 68 SSE 15 24 29.98 1015 10 16.0934 0 0
2:55 pm 14:55 Cloudy 50 10.1 40 4.5 68 68 SSE 16 26 29.97 1015 10 16.0934 0 0
3:15 pm 15:15 Cloudy 50 10 40 4.7 70 70 SSE 17 28 29.95 1014 10 16.0934 0 0
3:35 pm 15:35 Cloudy 49 9.6 41 4.8 72 72 SSE 15 24 29.94 1014 10 16.0934 0 0
3:55 pm 15:55 Cloudy 49 9.5 41 5 74 74 SE 14 22 29.95 1014 10 16.0934 0 0
4:15 pm 16:15 Cloudy 49 9.2 41 5.1 76 76 SE 13 20 29.96 1015 10 16.0934 0 0
4:35 pm 16:35 Cloudy 49 9.2 41 5.2 76 76 SSE 12 19 29.96 1015 10 16.0934 0 0
4:55 pm 16:55 Cloudy 48 8.8 42 5.5 80 80 SE 13 20 29.95 1014 10 16.0934 0 0
5:15 pm 17:15 Cloudy 47 8.2 42 5.6 84 84 SE 10 17 29.97 1015 7 11.26538 0 0
5:35 pm 17:35 Cloudy 46 8 42 5.6 85 85 SE 9 15 29.97 1015 7 11.26538 0 0
5:55 pm 17:55 Cloudy with Mist and Fog 46 7.7 42 5.8 88 88 SE 10 17 29.97 1015 4 6.43736 0 0
6:15 pm 18:15 Cloudy with Mist and Fog 45 7.2 43 6.1 93 93 ESE 10 17 29.97 1015 2 3.21868 0 0
6:35 pm 18:35 Cloudy with Mist and Fog 45 7 43 6.2 95 95 SE 10 17 29.97 1015 1.75 2.816345 0 0
6:55 pm 18:55 Cloudy with Mist and Fog 45 7 43 6.2 95 95 SE 10 17 29.97 1015 2.5 4.02335 0 0
7:15 pm 19:15 Cloudy with Mist and Fog 45 7 43 6.2 95 95 SE 12 19 29.98 1015 3 4.82802 0 0
7:35 pm 19:35 Cloudy with Mist and Fog 45 7 43 6.3 95 95 SE 10 17 29.98 1015 2 3.21868 0 0
7:55 pm 19:55 Cloudy with Mist and Fog 45 7 43 6.3 95 95 ESE 10 17 29.99 1016 2 3.21868 0 0
8:15 pm 20:15 Cloudy with Mist and Fog 45 7 43 6.3 95 95 ESE 13 20 29.99 1016 2.5 4.02335 0 0
8:35 pm 20:35 Cloudy with Mist and Fog 44 6.8 43 6.3 97 97 ESE 8 13 29.98 1015 2 3.21868 0 0
8:55 pm 20:55 Cloudy with Mist and Fog 44 6.8 43 6.3 97 97 ESE 12 19 29.98 1015 2.5 4.02335 0 0
9:15 pm 21:15 Cloudy with Mist and Fog 44 6.7 43 6.2 97 97 ESE 13 20 29.96 1015 2.5 4.02335 0 0
9:35 pm 21:35 Cloudy with Mist and Fog 44 6.7 43 6.2 97 97 ESE 12 19 29.96 1015 3 4.82802 0 0
9:55 pm 21:55 Cloudy with Mist and Fog 44 6.7 43 6.2 97 97 ESE 13 20 29.95 1014 2 3.21868 0 0
10:15 pm 22:15 Cloudy with Mist and Fog 44 6.6 43 6.1 97 97 ESE 10 17 29.95 1014 2.5 4.02335 0 0
10:35 pm 22:35 Cloudy with Mist and Fog 44 6.6 43 6.2 97 97 ESE 12 19 29.95 1014 4 6.43736 0 0
10:55 pm 22:55 Cloudy with Mist and Fog 44 6.6 43 6.1 97 97 SE 13 20 29.95 1014 5 8.0467 0 0
11:15 pm 23:15 Cloudy with Mist and Fog 44 6.6 43 6 96 96 ESE 10 17 29.95 1014 5 8.0467 0 0
11:35 pm 23:35 Cloudy with Mist and Fog 44 6.5 43 6 97 97 ESE 14 22 29.93 1014 4 6.43736 0 0
11:55 pm 23:55 Cloudy with Mist and Fog 43 6.3 43 6 98 98 ESE 12 19 29.94 1014 5 8.0467 0 0

Powered by AerisWeather